CZ-6A DEB, 60854

Orbit data source: Space-Track

CZ-6A DEB, 60854 is space debris in LEO originally from a launch on Tue, 06 Aug 2024 UTC launched from the Taiyaun Space Center, China (TSC). Debris objects in space refer to the collection of defunct objects orbiting the Earth. Examples of debris include non-operational satellites, rocket bodies, and fragments generated from explosions, collisions, or faulty payload assembly.

Loading next visibility...
Identifier
60854, 2024-140JH
Orbit
LEO
Country
Flag of CNCN / PRC
Related business
Manufacturer
SAST
Mission
Spacecraft
Bus & Motor
Unknown
Mass
Unknown
Launch date (UTC)
2024-08-06 (2 years ago)
Launch vehicle
Unknown
Launch site
Taiyaun Space Center, China (TSC)
Object type
Payload
Rocket body
Debris
Shape & HBR
Unknown shape, 0.1 m
Radar Cross Section
Medium (>0.1 m² and <1 m²)

Expand to show TLE details & history
Last TLE update: 15 hours ago

TLE from 15 hours ago
0 CZ-6A DEB
1 60854U 24140JH  26171.24046100  .00005792  00000-0  90605-3 0  9994
2 60854  88.9488 264.4043 0098216 219.0779 140.3317 14.69423051 98634
Epoch: 2026-06-20T05:46Z
TLE epoch observation values (Epoch: 2026-06-20T05:46:15.830Z)
Latitude
-0.00004°
Longitude
-90.61958°
Altitude
719.551 km
Speed
7.467 km/s
True Right ascension
17h 37m 37s
True Declination
0° 00' 00"
Sunlit
Object was in full shadow at epoch
Visualization orbit readout
Latitude
Unknown
Longitude
Unknown
Altitude
Unknown
Speed
Unknown
Apparent Right ascension
Unknown
Apparent Declination
Unknown
Sunlit
N/A
Visualization observer readout
Local Sidereal Time
07:24:18
Azimuth
Unknown
Elevation
Unknown
Doppler factor
Unknown
Orbital elements
Apogee altitude
728.915 km
Perigee altitude
590.667 km
Semi-major axis
7,037.928 km
Eccentricity
0.00982
Inclination
88.9488°
RAAN
264.4043°
Arg. of periapsis
219.0779°
True anomaly
141.04339°
Mean anomaly
140.3317°
Eccentric anomaly
140.68822°
Mean motion
3.676 °/min
Orbital period
97.93 mins
BSTAR
0.00090605
Loading maneuver chart data...
Computing Atmospheric mass density...
Loading historical data...
Loading historical data...
Loading historical data...
Loading historical data...
Loading historical data...
Loading historical data...
Loading historical data...

Documentation

Showing up to 5 results
|